timestamp,surface_pressure_avg,surface_temp_avg,battery_voltage,lat,long
2018-10-06 00:00:00+00:00,273.2664,12.1,13.05,47.84626,-54.09684
2018-10-06 00:10:00+00:00,265.7548,12.0,12.97,47.84626,-54.09684
2018-10-06 00:20:00+00:00,259.4214,12.1,13.05,47.84626,-54.09684
2018-10-06 00:30:00+00:00,256.5481,12.16,13.05,47.84626,-54.09684
2018-10-06 00:40:00+00:00,254.6781,12.16,13.05,47.84626,-54.09684
2018-10-06 00:50:00+00:00,248.0364,12.13,13.05,47.84626,-54.09684
2018-10-06 01:00:00+00:00,238.7547,12.1,13.05,47.84626,-54.09684
2018-10-06 01:10:00+00:00,235.568,12.1,12.97,47.84626,-54.09684
2018-10-06 01:20:00+00:00,233.2848,12.13,13.05,47.84626,-54.09684
2018-10-06 01:30:00+00:00,228.8765,12.1,13.05,47.84626,-54.09684
2018-10-06 01:40:00+00:00,222.7781,12.1,13.05,47.84626,-54.09684
2018-10-06 01:50:00+00:00,222.7231,12.1,13.05,47.84626,-54.09684
2018-10-06 02:00:00+00:00,222.5948,12.1,13.05,47.84626,-54.09684
2018-10-06 02:10:00+00:00,217.4698,12.1,12.97,47.84626,-54.09684
2018-10-06 02:20:00+00:00,212.8964,12.1,13.05,47.84626,-54.09684
2018-10-06 02:30:00+00:00,212.7414,12.1,13.05,47.84626,-54.09684
2018-10-06 02:40:00+00:00,210.5964,12.1,13.05,47.84626,-54.09684
2018-10-06 02:50:00+00:00,208.8814,12.1,13.05,47.84626,-54.09684
2018-10-06 03:00:00+00:00,207.2081,12.1,12.97,47.84626,-54.09684
2018-10-06 03:10:00+00:00,209.063,12.1,12.97,47.84626,-54.09684
2018-10-06 03:20:00+00:00,210.9098,12.1,12.97,47.84626,-54.09684
2018-10-06 03:30:00+00:00,208.1864,12.1,13.05,47.84626,-54.09684
2018-10-06 03:40:00+00:00,208.9698,12.1,13.05,47.84626,-54.09684
2018-10-06 03:50:00+00:00,215.2815,12.1,13.05,47.84626,-54.09684
2018-10-06 04:00:00+00:00,217.2581,12.1,12.97,47.84626,-54.09684
2018-10-06 04:10:00+00:00,214.0864,12.07,12.89,47.84626,-54.09684
2018-10-06 04:20:00+00:00,216.0531,12.03,12.97,47.84626,-54.09684
2018-10-06 04:30:00+00:00,224.9481,12.03,12.97,47.84626,-54.09684
2018-10-06 04:40:00+00:00,230.1447,12.0,13.05,47.84626,-54.09684
2018-10-06 04:50:00+00:00,231.2097,12.02,13.05,47.84626,-54.09684
2018-10-06 05:00:00+00:00,237.7164,12.0,12.97,47.84626,-54.09684
2018-10-06 05:10:00+00:00,247.9731,12.0,12.89,47.84626,-54.09684
2018-10-06 05:20:00+00:00,255.9765,12.0,12.97,47.84626,-54.09684
2018-10-06 05:30:00+00:00,257.2998,12.0,12.97,47.84626,-54.09684
2018-10-06 05:40:00+00:00,261.4081,12.0,12.97,47.84626,-54.09684
2018-10-06 05:50:00+00:00,269.6097,12.0,12.97,47.84626,-54.09684
2018-10-06 06:00:00+00:00,272.0331,12.0,12.97,47.84626,-54.09684
2018-10-06 06:10:00+00:00,271.3764,12.0,12.89,47.84626,-54.09684
2018-10-06 06:20:00+00:00,281.5081,12.0,12.97,47.84626,-54.09684
2018-10-06 06:30:00+00:00,290.2331,12.0,12.97,47.84626,-54.09684
2018-10-06 06:40:00+00:00,290.7863,12.0,12.97,47.84626,-54.09684
2018-10-06 06:50:00+00:00,292.6097,12.0,12.97,47.84626,-54.09684
2018-10-06 07:00:00+00:00,305.9431,12.0,12.89,47.84626,-54.09684
2018-10-06 07:10:00+00:00,312.733,12.0,12.81,47.84626,-54.09684
2018-10-06 07:20:00+00:00,310.6213,12.0,12.89,47.84626,-54.09684
2018-10-06 07:30:00+00:00,313.803,12.0,12.89,47.84626,-54.09684
2018-10-06 07:40:00+00:00,324.2697,12.0,12.97,47.84626,-54.09684
2018-10-06 07:50:00+00:00,324.8697,12.03,12.97,47.84626,-54.09684
2018-10-06 08:00:00+00:00,321.6829,12.0,12.89,47.84626,-54.09684
2018-10-06 08:10:00+00:00,329.9329,12.0,12.81,47.84626,-54.09684
2018-10-06 08:20:00+00:00,337.1512,12.0,12.89,47.84626,-54.09684
2018-10-06 08:30:00+00:00,335.5146,12.0,12.89,47.84626,-54.09684
2018-10-06 08:40:00+00:00,334.0863,12.0,12.89,47.84626,-54.09684
2018-10-06 08:50:00+00:00,337.4046,12.0,12.97,47.84626,-54.09684
2018-10-06 09:00:00+00:00,344.1181,12.0,12.89,47.84626,-54.09684
2018-10-06 09:10:00+00:00,342.5146,12.0,12.81,47.84626,-54.09684
2018-10-06 09:20:00+00:00,345.7213,11.9,12.89,47.84626,-54.09684
2018-10-06 09:30:00+00:00,344.1946,11.9,12.89,47.84626,-54.09684
2018-10-06 09:40:00+00:00,343.708,12.0,12.89,47.84626,-54.09684
2018-10-06 09:50:00+00:00,343.2597,12.0,12.89,47.84626,-54.09684
2018-10-06 10:00:00+00:00,339.6096,11.9,12.89,47.84626,-54.09684
2018-10-06 10:10:00+00:00,332.9114,11.9,12.89,47.84626,-54.09684
2018-10-06 10:20:00+00:00,333.443,11.92,12.89,47.84626,-54.09684
2018-10-06 10:30:00+00:00,330.6479,11.99,12.97,47.84626,-54.09684
2018-10-06 10:40:00+00:00,319.2097,12.0,12.97,47.84626,-54.09684
2018-10-06 10:50:00+00:00,314.7214,12.0,13.05,47.84626,-54.09684
2018-10-06 11:00:00+00:00,310.9547,12.0,13.05,47.84626,-54.09684
2018-10-06 11:10:00+00:00,302.6163,12.0,14.4,47.84626,-54.09684
2018-10-06 11:20:00+00:00,287.7463,12.0,14.0,47.84626,-54.09684
2018-10-06 11:30:00+00:00,288.2164,12.0,16.07,47.84626,-54.09684
2018-10-06 11:40:00+00:00,284.8097,12.0,16.55,47.84626,-54.09684
2018-10-06 11:50:00+00:00,274.6848,11.95,14.64,47.84626,-54.09684
2018-10-06 12:00:00+00:00,262.3781,11.88,16.39,47.84626,-54.09684
2018-10-06 12:10:00+00:00,263.2731,11.9,14.56,47.84626,-54.09684
2018-10-06 12:20:00+00:00,259.3064,11.9,14.72,47.84626,-54.09684
2018-10-06 12:30:00+00:00,247.6348,11.9,16.47,47.84626,-54.09684
2018-10-06 12:40:00+00:00,237.5881,11.8,15.99,47.84626,-54.09684
2018-10-06 12:50:00+00:00,239.3564,11.87,15.51,47.84626,-54.09684
2018-10-06 13:00:00+00:00,237.6997,11.9,14.96,47.84626,-54.09684
2018-10-06 13:10:00+00:00,227.9648,11.9,14.88,47.84626,-54.09684
2018-10-06 13:20:00+00:00,223.2281,11.87,14.88,47.84626,-54.09684
2018-10-06 13:30:00+00:00,223.3797,11.89,14.88,47.84626,-54.09684
2018-10-06 13:40:00+00:00,219.1531,11.9,14.8,47.84626,-54.09684
2018-10-06 13:50:00+00:00,209.7581,11.89,14.8,47.84626,-54.09684
2018-10-06 14:00:00+00:00,209.6014,11.83,14.72,47.84626,-54.09684
2018-10-06 14:10:00+00:00,209.3582,11.84,14.72,47.84626,-54.09684
2018-10-06 14:20:00+00:00,201.8214,11.85,14.72,47.84626,-54.09684
2018-10-06 14:30:00+00:00,199.4832,11.84,14.8,47.84626,-54.09684
2018-10-06 14:40:00+00:00,199.1198,11.84,14.8,47.84626,-54.09684
2018-10-06 14:50:00+00:00,193.4282,11.87,14.8,47.84626,-54.09684
2018-10-06 15:00:00+00:00,193.9448,11.88,14.72,47.84626,-54.09684
2018-10-06 15:10:00+00:00,197.8465,11.87,14.72,47.84626,-54.09684
2018-10-06 15:20:00+00:00,191.8648,11.89,14.72,47.84626,-54.09684
2018-10-06 15:30:00+00:00,190.6098,11.89,14.72,47.84626,-54.09684
2018-10-06 15:40:00+00:00,197.2264,11.88,14.72,47.84626,-54.09684
2018-10-06 15:50:00+00:00,194.1598,11.9,14.72,47.84626,-54.09684
2018-10-06 16:00:00+00:00,189.6631,11.9,14.64,47.84626,-54.09684
2018-10-06 16:10:00+00:00,196.8748,11.9,14.56,47.84626,-54.09684
2018-10-06 16:20:00+00:00,202.2781,11.9,14.64,47.84626,-54.09684
2018-10-06 16:30:00+00:00,198.7831,11.9,14.64,47.84626,-54.09684
2018-10-06 16:40:00+00:00,199.3181,11.9,14.64,47.84626,-54.09684
2018-10-06 16:50:00+00:00,208.7131,11.9,14.56,47.84626,-54.09684
2018-10-06 17:00:00+00:00,215.6881,11.9,14.48,47.84626,-54.09684
2018-10-06 17:10:00+00:00,214.8481,11.9,14.48,47.84626,-54.09684
2018-10-06 17:20:00+00:00,216.2014,11.9,14.56,47.84626,-54.09684
2018-10-06 17:30:00+00:00,226.3481,11.91,14.56,47.84626,-54.09684
2018-10-06 17:40:00+00:00,232.4682,11.95,14.56,47.84626,-54.09684
2018-10-06 17:50:00+00:00,231.4048,11.96,14.48,47.84626,-54.09684
2018-10-06 18:00:00+00:00,235.6014,11.99,14.4,47.84626,-54.09684
2018-10-06 18:10:00+00:00,244.5564,12.0,14.32,47.84626,-54.09684
2018-10-06 18:20:00+00:00,253.2981,12.0,14.4,47.84626,-54.09684
2018-10-06 18:30:00+00:00,261.7948,12.0,14.4,47.84626,-54.09684
2018-10-06 18:40:00+00:00,272.7081,12.0,14.32,47.84626,-54.09684
2018-10-06 18:50:00+00:00,279.2514,12.0,14.32,47.84626,-54.09684
2018-10-06 19:00:00+00:00,283.3897,12.0,14.24,47.84626,-54.09684
2018-10-06 19:10:00+00:00,295.6813,12.0,14.0,47.84626,-54.09684
2018-10-06 19:20:00+00:00,309.2697,12.0,14.0,47.84626,-54.09684
2018-10-06 19:30:00+00:00,313.5896,12.0,14.0,47.84626,-54.09684
2018-10-06 19:40:00+00:00,318.4763,12.0,14.0,47.84626,-54.09684
2018-10-06 19:50:00+00:00,334.3414,12.0,14.0,47.84626,-54.09684
2018-10-06 20:00:00+00:00,342.1629,12.0,13.92,47.84626,-54.09684
2018-10-06 20:10:00+00:00,338.7429,12.0,13.76,47.84626,-54.09684
2018-10-06 20:20:00+00:00,348.603,12.0,13.76,47.84626,-54.09684
2018-10-06 20:30:00+00:00,358.8529,11.98,13.68,47.84626,-54.09684
2018-10-06 20:40:00+00:00,354.3079,12.0,13.68,47.84626,-54.09684
2018-10-06 20:50:00+00:00,358.4078,12.0,13.6,47.84626,-54.09684
2018-10-06 21:00:00+00:00,366.7879,11.96,13.53,47.84626,-54.09684
2018-10-06 21:10:00+00:00,364.923,11.97,13.37,47.84626,-54.09684
2018-10-06 21:20:00+00:00,360.1846,11.99,13.37,47.84626,-54.09684
2018-10-06 21:30:00+00:00,370.2913,11.92,13.29,47.84626,-54.09684
2018-10-06 21:40:00+00:00,381.9796,11.93,13.29,47.84626,-54.09684
2018-10-06 21:50:00+00:00,374.2762,11.95,13.29,47.84626,-54.09684
2018-10-06 22:00:00+00:00,369.2762,11.99,13.21,47.84626,-54.09684
2018-10-06 22:10:00+00:00,378.8547,11.94,13.05,47.84626,-54.09684
2018-10-06 22:20:00+00:00,378.0845,11.93,13.13,47.84626,-54.09684
2018-10-06 22:30:00+00:00,366.5646,11.98,13.13,47.84626,-54.09684
2018-10-06 22:40:00+00:00,366.6447,11.94,13.13,47.84626,-54.09684
2018-10-06 22:50:00+00:00,371.3796,11.92,13.13,47.84626,-54.09684
2018-10-06 23:00:00+00:00,360.278,11.93,13.05,47.84626,-54.09684
2018-10-06 23:10:00+00:00,348.2413,11.9,12.97,47.84626,-54.09684
2018-10-06 23:20:00+00:00,351.2863,11.9,13.05,47.84626,-54.09684
2018-10-06 23:30:00+00:00,341.7713,11.9,13.05,47.84626,-54.09684
2018-10-06 23:40:00+00:00,325.3463,11.9,13.13,47.84626,-54.09684
2018-10-06 23:50:00+00:00,320.1514,11.9,13.13,47.84626,-54.09684
